Portada
METAR-TAF:

METAR-TAF

Aeroports :

Raymond, Mississipí, Estats Units d'Amèrica

latitud: 32-18-16N, longitud: 090-24-38W, altitud: 75 m

Observació

L'informe es va fer fa 11 minuts, a les 21:55 UTC
Vent 8 kt del Sud-Est amb ràfegues de 14 kt
Temperatura 30°C
Humitat 75%
Pressió 1014 hPa
Visibilitat: 16.1 km
Cel clar

METAR: KJVW 182155Z AUTO 14008G14KT 10SM CLR 30/25 A2995 RMK AO2

Hora: 17:06 (22:06 UTC)


TAF: manca

Observacions i pronòstics meteorològics de més de 4000 aeroports (METAR i TAF).

Les estacions disponibles són els punts grocs i vermells al mapa.

Posi el ratolí al punt desitjat per veure el nom de l'estació.

Feu clic per veure les observacions i els pronòstics meteorològics.

Per canviar el mapa: feu clic els botons verds amb una creu de color negre per apropar; al botó verd amb un guió per allunyar la imatge; o en les fletxes verdes per a mapes adjacents.


METAR-TAF: